Погода в Агараке

Россия / Тюменская область     56°58′11″N   67°56′41″E
темп.,
°C
ветер,
м/с
пор.,
м/с
влажн.,
%
обл.,
%
осадки,
мм/ч
давл.,
гПа
погр.,
м
6 марта, сб
сб623:00−5ююз269295 0.0 998186
02:00−5сз1297100 0.4 99627
05:00−5зсз4994100 1.3 998461
08:00−9з51392100 0.1 1000545
11:00−9з6128698 0.1 1004686
14:00−6з6117830 0.0 10051232
17:00−7зюз598660 0.1 10061058
20:00−10юз4129188 0.1 1007416
7 марта, вс
вс723:00−9зюз5129094 0.1 1008620
02:00−12з4109399 0.0 1009383
05:00−16зюз389358 0.0 1011189
08:00−18юз25947 0.0 1013113
11:00−11юз238745 0.0 1013263
14:00−8ююв2485100 0.0 1012468
17:00−9вюв3795100 0.3 1008448
20:00−9в4995100 1.4 1004438
8 марта, пн
пн823:00−9св4995100 3.8 999615
02:00−10ссз5994100 2.9 997489
05:00−11зсз51192100 3.1 1001530
08:00−13зсз51093100 0.1 1005471
11:00−12з4990100 0.1 1008548
14:00−10зюз478398 0.0 1009838
17:00−11юз488798 0.0 1009616
20:00−12ююз4119299 0.1 1009598
9 марта, вт
вт923:00−12ююз4119398 0.1 1009485
02:00−10ю4119399 0.1 1007508
05:00−9ююз5139099 0.3 1006573
08:00−8ююз61391100 0.1 1004634
11:00−5юз61192100 0.3 1004864
14:00−4юз5993100 0.8 1004816
17:00−4юз4991100 1.3 1004730
20:00−7зюз399379 0.1 1005228
10 марта, ср
ср1023:00−12зюз229239 0.1 100721
02:00−11ююз229664 0.1 100839
05:00−14юз379680 0.1 1009184
08:00−15зюз399497 0.0 1009229
11:00−11зюз379195 0.0 1009399
14:00−8зюз468799 0.0 1009710
17:00−9з3589100 0.1 1008623
20:00−14зюз259793 0.0 100992